Tillbaka till svenska Fidonet
English   Information   Debug  
FILM   0/18
FNEWS_PUBLISH   4926
FN_SYSOP   42201
FN_SYSOP_OLD1   71952
FTP_FIDO   0/2
FTSC_PUBLIC   0/13972
FUNNY   0/4886
GENEALOGY.EUR   0/71
GET_INFO   105
GOLDED   0/408
HAM   5167/16660
HOLYSMOKE   0/6791
HOT_SITES   0/1
HTMLEDIT   0/71
HUB203   466
HUB_100   264
HUB_400   39
HUMOR   0/29
IC   0/2851
INTERNET   0/424
INTERUSER   0/3
IP_CONNECT   719
JAMNNTPD   0/233
JAMTLAND   0/47
KATTY_KORNER   0/41
LAN   0/16
LINUX-USER   0/19
LINUXHELP   0/1155
LINUX   21894/22300
LINUX_BBS   0/957
mail   18.68
mail_fore_ok   249
MENSA   0/341
MODERATOR   0/102
MONTE   0/992
MOSCOW_OKLAHOMA   0/1245
MUFFIN   0/783
MUSIC   0/321
N203_STAT   938
N203_SYSCHAT   313
NET203   321
NET204   69
NET_DEV   0/10
NORD.ADMIN   0/101
NORD.CHAT   0/2572
NORD.FIDONET   189
NORD.HARDWARE   0/28
NORD.KULTUR   0/114
NORD.PROG   0/32
NORD.SOFTWARE   0/88
NORD.TEKNIK   0/58
NORD   0/453
OCCULT_CHAT   0/93
OS2BBS   0/787
OS2DOSBBS   0/580
OS2HW   0/42
OS2INET   0/37
OS2LAN   0/134
OS2PROG   0/36
OS2REXX   0/113
OS2USER-L   207
OS2   0/4830
OSDEBATE   2518/18996
PASCAL   0/490
PERL   0/457
PHP   0/45
POINTS   0/405
POLITICS   0/29554
POL_INC   0/14731
PSION   103
R20_ADMIN   1133
R20_AMATORRADIO   0/2
R20_BEST_OF_FIDONET   16
R20_CHAT   0/896
R20_DEPP   0/3
R20_DEV   400
R20_ECHO2   1830
R20_ECHOPRES   0/35
R20_ESTAT   0/719
R20_FIDONETPROG...
...RAM.MYPOINT
  0/2
R20_FIDONETPROGRAM   0/22
R20_FIDONET   0/248
R20_FILEFIND   0/24
R20_FILEFOUND   0/22
R20_HIFI   0/3
R20_INFO2   3723
R20_INTERNET   0/12940
R20_INTRESSE   0/60
R20_INTR_KOM   0/99
R20_KANDIDAT.CHAT   42
R20_KANDIDAT   28
R20_KOM_DEV   112
R20_KONTROLL   0/13360
R20_KORSET   0/18
R20_LOKALTRAFIK   0/24
R20_MODERATOR   0/1852
R20_NC   76
R20_NET200   245
R20_NETWORK.OTH...
...ERNETS
  0/13
R20_OPERATIVSYS...
...TEM.LINUX
  0/44
R20_PROGRAMVAROR   0/1
R20_REC2NEC   534
R20_SFOSM   0/341
R20_SF   0/108
R20_SPRAK.ENGLISH   0/1
R20_SQUISH   107
R20_TEST   2
R20_WORST_OF_FIDONET   20
RAR   0/9
RA_MULTI   106
RA_UTIL   0/162
REGCON.EUR   0/2068
REGCON   0/13
SCIENCE   0/1206
SF   0/239
SHAREWARE_SUPPORT   0/5146
SHAREWRE   0/14
SIMPSONS   0/169
STATS_OLD1   0/2539.065
STATS_OLD2   0/2530
STATS_OLD3   0/2395.095
STATS_OLD4   0/1692.25
SURVIVOR   0/495
SYSOPS_CORNER   0/3
SYSOP   0/84
TAGLINES   0/112
TEAMOS2   0/4530
TECH   0/2617
TEST.444   0/105
TRAPDOOR   0/19
TREK   0/755
TUB   0/290
UFO   0/40
UNIX   0/1316
USA_EURLINK   0/102
USR_MODEMS   0/1
VATICAN   0/2740
VIETNAM_VETS   0/14
VIRUS   0/378
VIRUS_INFO   0/201
VISUAL_BASIC   0/473
WHITEHOUSE   0/5187
WIN2000   0/101
WIN32   0/30
WIN95   0/4291
WIN95_OLD1   0/70272
WINDOWS   0/1517
WWB_SYSOP   0/419
WWB_TECH   0/810
ZCC-PUBLIC   0/1
ZEC   4

 
4DOS   0/134
ABORTION   0/7
ALASKA_CHAT   0/506
ALLFIX_FILE   0/1313
ALLFIX_FILE_OLD1   0/7997
ALT_DOS   0/152
AMATEUR_RADIO   0/1039
AMIGASALE   0/14
AMIGA   0/331
AMIGA_INT   0/1
AMIGA_PROG   0/20
AMIGA_SYSOP   0/26
ANIME   0/15
ARGUS   0/924
ASCII_ART   0/340
ASIAN_LINK   0/651
ASTRONOMY   0/417
AUDIO   0/92
AUTOMOBILE_RACING   0/105
BABYLON5   0/17862
BAG   135
BATPOWER   0/361
BBBS.ENGLISH   0/382
BBSLAW   0/109
BBS_ADS   0/5290
BBS_INTERNET   0/507
BIBLE   0/3563
BINKD   0/1119
BINKLEY   0/215
BLUEWAVE   0/2173
CABLE_MODEMS   0/25
CBM   0/46
CDRECORD   0/66
CDROM   0/20
CLASSIC_COMPUTER   0/378
COMICS   0/15
CONSPRCY   0/899
COOKING   41444
COOKING_OLD1   0/24719
COOKING_OLD2   0/40862
COOKING_OLD3   0/37489
COOKING_OLD4   0/35496
COOKING_OLD5   9370
C_ECHO   0/189
C_PLUSPLUS   0/31
DIRTY_DOZEN   0/201
DOORGAMES   0/2284
DOS_INTERNET   0/196
duplikat   6102
ECHOLIST   0/18295
EC_SUPPORT   0/318
ELECTRONICS   0/359
ELEKTRONIK.GER   1534
ENET.LINGUISTIC   0/13
ENET.POLITICS   0/4
ENET.SOFT   0/11701
ENET.SYSOP   34296
ENET.TALKS   0/32
ENGLISH_TUTOR   0/2000
EVOLUTION   0/1335
FDECHO   0/217
FDN_ANNOUNCE   0/7068
FIDONEWS   25062
FIDONEWS_OLD1   0/49742
FIDONEWS_OLD2   0/35949
FIDONEWS_OLD3   0/30874
FIDONEWS_OLD4   0/37224
FIDO_SYSOP   12922
FIDO_UTIL   0/180
FILEFIND   0/209
FILEGATE   0/212
Möte HAM, 16660 texter
 lista första sista föregående nästa
Text 2664, 745 rader
Skriven 2008-12-11 22:00:24 av Amsat List (1:323/120.0)
Ärende: [keps]  orb08346.amsa
=============================
[keps]  orb08346.amsa

Return-Path: <keps-bounces@amsat.org>
X-Rcpt: craig.healy@chowda.com
X-UIDL: 1229049532.5065

SB KEPS @ AMSAT  $ORB08346.O
Orbital Elements  08346.OSCAR

HR AMSAT ORBITAL ELEMENTS FOR OSCAR SATELLITES
FROM WA5QGD FORT WORTH,TX December 11, 2008
Send Subscribe/unsubscribe to KEPS at 
http://www.amsat.org/mailman/listinfo/keps
BID: ORB08346.O
TO ALL RADIO AMATEURS BT

Satellite: AO-07
Catalog number: 07530
Epoch time:      08346.38408185
Element set:     349
Inclination:      101.4477 deg
RA of node:       011.8245 deg
Eccentricity:    0.0011766
Arg of perigee:   275.4355 deg
Mean anomaly:     084.5378 deg
Mean motion:   12.53574760 rev/day
Decay rate:       -2.7e-07 rev/day^2
Epoch rev:           55918
Checksum:              317

Satellite: AO-10
Catalog number: 14129
Epoch time:      08343.45863267
Element set:     597
Inclination:      026.0341 deg
RA of node:       182.1707 deg
Eccentricity:    0.5958897
Arg of perigee:   179.8504 deg
Mean anomaly:     180.4929 deg
Mean motion:   02.05868720 rev/day
Decay rate:       1.07e-06 rev/day^2
Epoch rev:           19169
Checksum:              340

Satellite: UO-11
Catalog number: 14781
Epoch time:      08345.95425105
Element set:     833
Inclination:      098.1348 deg
RA of node:       022.4325 deg
Eccentricity:    0.0008284
Arg of perigee:   219.4593 deg
Mean anomaly:     140.6041 deg
Mean motion:   14.79683444 rev/day
Decay rate:       3.56e-06 rev/day^2
Epoch rev:           32999
Checksum:              316

Satellite: RS-15
Catalog number: 23439
Epoch time:      08346.39712628
Element set:     165
Inclination:      064.8161 deg
RA of node:       208.4878 deg
Eccentricity:    0.0145797
Arg of perigee:   088.3234 deg
Mean anomaly:     273.4381 deg
Mean motion:   11.27553090 rev/day
Decay rate:       -3.9e-07 rev/day^2
Epoch rev:           57494
Checksum:              336

Satellite: FO-29
Catalog number: 24278
Epoch time:      08346.46061694
Element set:     923
Inclination:      098.5776 deg
RA of node:       239.4538 deg
Eccentricity:    0.0351514
Arg of perigee:   116.6110 deg
Mean anomaly:     247.1497 deg
Mean motion:   13.52939874 rev/day
Decay rate:       -6.9e-07 rev/day^2
Epoch rev:           60836
Checksum:              351

Satellite: SO-33
Catalog number: 25509
Epoch time:      08345.54375048
Element set:     342
Inclination:      031.4287 deg
RA of node:       039.1681 deg
Eccentricity:    0.0354659
Arg of perigee:   129.2227 deg
Mean anomaly:     234.0438 deg
Mean motion:   14.28232279 rev/day
Decay rate:        2.0e-07 rev/day^2
Epoch rev:           52884
Checksum:              306

Satellite: AO-40
Catalog number: 26609
Epoch time:      08345.45817211
Element set:     165
Inclination:      008.2618 deg
RA of node:       044.3169 deg
Eccentricity:    0.7938980
Arg of perigee:   153.6540 deg
Mean anomaly:     290.7641 deg
Mean motion:   01.25583138 rev/day
Decay rate:       -1.2e-07 rev/day^2
Epoch rev:            3725
Checksum:              305

Satellite: VO-52
Catalog number: 28650
Epoch time:      08346.36224472
Element set:     101
Inclination:      097.7700 deg
RA of node:       047.9055 deg
Eccentricity:    0.0026003
Arg of perigee:   283.5485 deg
Mean anomaly:     076.2810 deg
Mean motion:   14.81532559 rev/day
Decay rate:       4.03e-06 rev/day^2
Epoch rev:           19483
Checksum:              296

Satellite: PO-63
Catalog number: 29712
Epoch time:      08346.73248185
Element set:      47
Inclination:      097.8551 deg
RA of node:       041.3954 deg
Eccentricity:    0.0014393
Arg of perigee:   160.8840 deg
Mean anomaly:     199.2926 deg
Mean motion:   14.80370194 rev/day
Decay rate:       6.91e-06 rev/day^2
Epoch rev:           10373
Checksum:              323

/EX
SB KEPS @ AMSAT  $ORB08346.D
Orbital Elements  08346.MICROS

HR AMSAT ORBITAL ELEMENTS FOR THE MICROSATS
FROM WA5QGD FORT WORTH,TX December 11, 2008
Send Subscribe/unsubscribe to KEPS at 
http://www.amsat.org/mailman/listinfo/keps
BID: ORB08346.D
TO ALL RADIO AMATEURS BT

Satellite: AO-16
Catalog number: 20439
Epoch time:      08345.94309357
Element set:     483
Inclination:      098.2539 deg
RA of node:       317.1816 deg
Eccentricity:    0.0011395
Arg of perigee:   015.4453 deg
Mean anomaly:     344.7078 deg
Mean motion:   14.31810491 rev/day
Decay rate:        1.7e-07 rev/day^2
Epoch rev:           98621
Checksum:              314

Satellite: LO-19
Catalog number: 20442
Epoch time:      08346.86946464
Element set:     408
Inclination:      098.2191 deg
RA of node:       326.0224 deg
Eccentricity:    0.0012247
Arg of perigee:   009.7387 deg
Mean anomaly:     350.4032 deg
Mean motion:   14.32048230 rev/day
Decay rate:        5.6e-07 rev/day^2
Epoch rev:           98650
Checksum:              295

Satellite: AO-27
Catalog number: 22825
Epoch time:      08346.03857660
Element set:     126
Inclination:      098.4110 deg
RA of node:       299.6555 deg
Eccentricity:    0.0009315
Arg of perigee:   098.4207 deg
Mean anomaly:     261.8032 deg
Mean motion:   14.29254523 rev/day
Decay rate:       1.56e-06 rev/day^2
Epoch rev:           79303
Checksum:              308

Satellite: IO-26
Catalog number: 22826
Epoch time:      08346.55175196
Element set:     843
Inclination:      098.4044 deg
RA of node:       300.9827 deg
Eccentricity:    0.0009858
Arg of perigee:   093.0355 deg
Mean anomaly:     267.1973 deg
Mean motion:   14.29504119 rev/day
Decay rate:        1.5e-07 rev/day^2
Epoch rev:           79320
Checksum:              325

